Flag for U.S.A. Weather past 2 weeks in Bentonville, Arkansas, U.S.A.

Now
84 °F

Passing clouds.


Feels Like: 90 °F
Forecast: 69 / 91 °F
Wind: 7 mph from Southwest

Location: Bentonville Weather Observing Station

Current Time: Jul 22, 2014 at 6:15:48 PM

Latest Report: Jul 22, 2014 at 11:55 AM


Visibility: 9 mi

Pressure: 30.14 "Hg

Humidity: 66%

Dew point: 72 °F

Location of BentonvilleLocation

Historic Weather in Bentonville — Graph

°F

Bentonville temperature yesterday

Maximum temperature yesterday: 90 °F (at 4:55 PM)
Minimum temperature yesterday: 63 °F (at 4:55 AM)
Average temperature yesterday: 76 °F

Past Weeks' High & Low Weather Summary

 TemperatureHumidityPressure
High93 °F (Jul 13, 3:15 PM)94% (Jul 19, 2:55 AM)30.20 "Hg (Jul 19, 2:55 AM)
Low54 °F (Jul 16, 3:35 AM)39% (Jul 15, 2:35 PM)29.87 "Hg (Jul 7, 10:55 PM)
Average74 °F67%30.07 "Hg
* Reported Jul 7 11:15 AM — Jul 22 11:55 AM, Bentonville, Weather by CustomWeather, © 2014

Note: Actual official high and low records may vary slightly from our data, if they occured in-between our weather recording intervals... More about our weather records

Advertising

Bentonville weather history for previous 24 hours

 ConditionsComfort  
Time TempWeatherWind HumidityBarometerVisibility
11:55 AM
Jul 22
84 °FPassing clouds.7 mph66%30.14 "Hg9 mi
11:35 AM84 °FPassing clouds.8 mph66%30.15 "Hg8 mi
10:55 AMN/A9 mphN/A30.15 "HgN/A
10:35 AM82 °FSunny.7 mph70%30.15 "Hg10 mi
10:15 AM81 °FSunny.8 mph74%30.15 "Hg9 mi
9:55 AM81 °FSunny.7 mph70%30.15 "Hg10 mi
9:35 AM79 °FSunny.3 mph74%30.16 "Hg10 mi
9:15 AM79 °FSunny.5 mph74%30.16 "Hg10 mi
8:55 AM77 °FSunny.6 mph74%30.15 "Hg10 mi
8:35 AM75 °FSunny.3 mph74%30.15 "Hg10 mi
8:15 AM73 °FSunny.5 mph78%30.14 "Hg10 mi
7:55 AM72 °FSunny.No wind83%30.14 "Hg10 mi
7:15 AM70 °FSunny.No wind83%30.13 "Hg10 mi
6:55 AM68 °FClear.5 mph83%30.13 "Hg8 mi
6:35 AM66 °FClear.3 mph94%30.12 "Hg9 mi
6:15 AM68 °FClear.No wind88%30.11 "Hg10 mi
5:55 AM66 °FClear.3 mph88%30.11 "Hg10 mi
5:35 AM68 °FClear.3 mph88%30.11 "Hg10 mi
5:15 AM68 °FClear.No wind88%30.10 "Hg9 mi
4:55 AM68 °FClear.No wind88%30.10 "Hg10 mi
4:35 AM68 °FClear.5 mph88%30.10 "Hg10 mi
4:15 AM68 °FClear.No wind88%30.10 "Hg10 mi
3:55 AM68 °FClear.No wind88%30.10 "Hg9 mi
3:35 AM70 °FClear.No wind83%30.10 "Hg10 mi
3:15 AM70 °FClear.No wind83%30.09 "Hg10 mi
2:55 AM70 °FClear.No wind83%30.09 "Hg10 mi
2:35 AM70 °FClear.No wind88%30.09 "Hg10 mi
1:55 AM72 °FClear.3 mph83%30.10 "Hg10 mi
1:35 AM72 °FClear.No wind83%30.10 "Hg10 mi
1:15 AM72 °FClear.No wind83%30.11 "Hg10 mi
12:55 AM73 °FClear.3 mph78%30.10 "Hg10 mi
12:35 AM72 °FClear.5 mph83%30.10 "Hg10 mi
12:15 AM73 °FClear.3 mph78%30.10 "Hg10 mi
11:55 PM
Jul 21
73 °FClear.3 mph78%30.10 "Hg10 mi
11:35 PM73 °FClear.3 mph78%30.09 "Hg10 mi
11:15 PM75 °FClear.No wind74%30.09 "Hg10 mi
10:55 PM75 °FClear.6 mph78%30.09 "Hg10 mi
10:35 PM77 °FClear.6 mph74%30.08 "Hg10 mi
9:55 PM79 °FClear.6 mph74%30.07 "Hg10 mi
9:35 PM79 °FClear.6 mph74%30.06 "Hg10 mi
9:15 PM81 °FSunny.5 mph70%30.06 "Hg10 mi
8:55 PM81 °FSunny.5 mph70%30.05 "Hg10 mi
8:35 PM82 °FSunny.5 mph66%30.05 "Hg10 mi
8:15 PM84 °FSunny.3 mph62%30.04 "Hg10 mi
7:55 PM84 °FSunny.5 mph62%30.04 "Hg10 mi
7:35 PM84 °FSunny.5 mph62%30.05 "Hg10 mi
7:15 PM88 °FSunny.5 mph55%30.05 "Hg10 mi
6:55 PM88 °FSunny.6 mph55%30.06 "Hg10 mi
6:35 PM88 °FSunny.6 mph55%30.06 "Hg10 mi
6:15 PM88 °FSunny.3 mph55%30.06 "Hg10 mi
Weather by CustomWeather, © 2014

See weather overviewHow to use our weather pages